Dati Storici

Data ora Umidita' aria (%) Temperatura aria (°C) Rad globale (W/m²) Gonioanemometro (°) Tacoanemometro (m/s) Pioggia (mm)
07-11-2012 21:30 76.7 % 10.168 1.1 140.502 0.416 0
07-11-2012 21:20 76.8 % 10.22 1.575 221.015 0.765 0
07-11-2012 21:10 75.8 % 10.38 1.6 196.364 0.476 0
07-11-2012 21:00 75 % 10.567 1.818 209.679 0.38 0
07-11-2012 20:50 74.2 % 10.64 1.508 200.697 0.655 0
07-11-2012 20:40 73.2 % 11.081 2.034 213.101 0.679 0
07-11-2012 20:30 73.5 % 10.988 1.817 193.032 0.539 0
07-11-2012 20:20 72.1 % 10.811 1.855 227.054 0.064 0
07-11-2012 20:10 72.2 % 10.982 2.162 200.745 0.427 0
07-11-2012 20:00 71.7 % 10.487 1.703 157.355 0.634 0
07-11-2012 19:50 70.5 % 10.549 1.523 122.722 0.501 0
07-11-2012 19:40 69.6 % 10.717 1.561 123.737 0.963 0
07-11-2012 19:30 67.9 % 11.253 1.51 158.492 0.051 0
07-11-2012 19:20 67.4 % 11.698 1.177 165.548 0.784 0
07-11-2012 19:10 66 % 11.826 1.316 218.958 0.335 0
07-11-2012 19:00 64.8 % 12.125 1.547 204.305 0.606 0
07-11-2012 18:50 64.2 % 12.341 1.201 204.045 1.08 0
07-11-2012 18:40 64.1 % 12.097 1.124 174.491 1.477 0
07-11-2012 18:30 63.8 % 11.847 1.059 171.615 0.767 0
07-11-2012 18:20 62.8 % 12.211 1.367 180.957 0.493 0

I dati sono presentati in modo automatico a scopo informativo. In seguito a verifica i dati possono subire modifiche o essere invalidati e non riportati negli archivi definitivi.